EW3012 Weather Reports


time (UTC)temp
C
wind
direction
speed
KPH
gust
KPH
rain 1hr
cm
rain 24hr
cm
rain mn
cm
humidity
%
barometer
mb
20260508043813 13 262 0.0 0.0 0.00 0.00 0.00 81 1015.3
20260508043314 13 261 0.0 0.0 0.00 0.00 0.00 82 1015.3
20260508042814 12 262 0.0 0.0 0.00 0.00 0.00 81 1015.2
20260508042328 12 261 0.0 0.0 0.00 0.00 0.00 81 1015.2
20260508041815 12 262 0.0 0.0 0.00 0.00 0.00 81 1015.2
20260508041313 11 262 0.0 0.0 0.00 0.00 0.00 81 1015.2
20260508041240 11 262 0.0 0.0 0.00 0.00 0.00 82 1015.1
20260508040314 11 261 0.0 0.0 0.00 0.00 0.00 82 1015.0
20260508040225 11 262 0.0 0.0 0.00 0.00 0.00 82 1015.0
20260508035743 11 261 0.0 0.0 0.00 0.00 0.00 82 1014.9
20260508034812 11 261 0.0 0.0 0.00 0.00 0.00 82 1014.9
20260508034312 11 262 0.0 0.0 0.00 0.00 0.00 82 1015.0
20260508033810 11 261 0.0 0.0 0.00 0.00 0.00 82 1015.0
20260508033312 11 261 0.0 0.0 0.00 0.00 0.00 82 1015.0
20260508033153 12 259 0.0 0.0 0.00 0.00 0.00 82 1014.8
20260508032954 12 261 0.0 0.0 0.00 0.00 0.00 82 1014.9
20260508032503 12 262 0.0 0.0 0.00 0.00 0.00 82 1014.9
20260508031309 12 259 0.0 0.0 0.00 0.00 0.00 82 1014.8
20260508030810 12 268 0.0 0.0 0.00 0.00 0.00 82 1014.8
20260508030309 12 266 0.0 0.0 0.00 0.00 0.00 83 1014.8
20260508025811 12 268 0.0 0.0 0.00 0.00 0.00 83 1014.7
20260508025720 12 266 0.0 0.0 0.00 0.00 0.00 83 1014.5
20260508024812 12 268 0.0 0.0 0.00 0.00 0.00 83 1014.5
20260508024308 12 268 0.0 0.0 0.00 0.00 0.00 83 1014.5
20260508023809 12 268 0.0 0.0 0.00 0.00 0.00 83 1014.7
20260508023309 12 268 0.0 0.0 0.00 0.00 0.00 83 1014.5
20260508022810 12 268 0.0 0.0 0.00 0.00 0.00 83 1014.5
20260508022308 12 268 0.0 0.0 0.00 0.00 0.00 83 1014.4
20260508021809 12 268 0.0 0.0 0.00 0.00 0.00 83 1014.5
20260508021309 12 268 0.0 0.0 0.00 0.00 0.00 84 1014.5
20260508020809 12 268 0.0 0.0 0.00 0.00 0.00 84 1014.4
20260508020310 12 266 0.0 0.0 0.00 0.00 0.00 84 1014.5
20260508015808 12 268 0.0 0.0 0.00 0.00 0.00 84 1014.5
20260508015309 12 268 0.0 0.0 0.00 0.00 0.00 84 1014.5
20260508015213 12 268 0.0 0.0 0.00 0.00 0.00 84 1014.5
20260508014956 12 268 0.0 0.0 0.00 0.00 0.00 84 1014.5
20260508013808 12 268 0.0 0.0 0.00 0.00 0.00 84 1014.8
20260508013648 12 268 0.0 0.0 0.00 0.00 0.00 85 1014.7
20260508013641 12 268 0.0 0.0 0.00 0.00 0.00 85 1014.7
20260508013448 12 268 0.0 0.0 0.00 0.00 0.00 85 1014.7
20260508011811 12 268 0.0 0.0 0.00 0.00 0.00 85 1014.8
20260508011311 12 268 0.0 0.0 0.00 0.00 0.00 85 1014.8
20260508010807 12 268 0.0 0.0 0.00 0.00 0.00 85 1014.8
20260508010723 12 268 0.0 0.0 0.00 0.00 0.00 86 1014.7
20260508005807 12 268 0.0 0.0 0.00 0.00 0.00 86 1014.8
20260508005307 12 268 0.0 0.0 0.00 0.00 0.00 86 1014.8
20260508004806 12 268 0.0 0.0 0.00 0.00 0.00 86 1014.8
20260508004308 12 268 0.0 0.0 0.00 0.00 0.00 86 1014.7
20260508003805 12 268 0.0 0.0 0.00 0.00 0.00 86 1014.7
20260508003307 12 268 0.0 0.0 0.00 0.00 0.00 87 1014.7
20260508002806 12 266 0.0 0.0 0.00 0.00 0.00 87 1014.7
20260508002734 12 268 0.0 0.0 0.00 0.00 0.00 87 1014.7
20260508002238 12 268 0.0 0.0 0.00 0.00 0.00 87 1014.9
20260508001305 12 268 0.0 0.0 0.00 0.00 0.00 87 1014.9
20260508001204 12 268 0.0 0.0 0.00 0.00 0.00 87 1014.9
20260508000955 12 268 0.0 0.0 0.00 0.00 0.00 87 1015.0
20260507235807 12 268 0.0 0.0 0.00 0.00 0.00 87 1015.0
20260507235306 12 259 0.0 0.0 0.00 0.00 0.00 87 1015.0
20260507234806 12 271 0.0 0.0 0.00 0.00 0.00 87 1014.9
20260507234306 12 271 0.0 0.0 0.00 0.00 0.00 87 1015.0
20260507234235 12 271 0.0 0.0 0.00 0.00 0.00 87 1015.0
20260507233304 12 271 0.0 0.0 0.00 0.00 0.00 87 1015.0
20260507232805 12 271 0.0 0.0 0.00 0.00 0.00 87 1015.1
20260507232726 12 271 0.0 0.0 0.00 0.00 0.00 87 1015.0
20260507231805 12 271 0.0 0.0 0.00 0.00 0.00 87 1015.1
20260507231306 12 271 0.0 0.0 0.00 0.00 0.00 87 1015.2
20260507230803 12 271 0.0 0.0 0.00 0.00 0.00 87 1015.3
20260507230305 12 271 0.0 0.0 0.00 0.00 0.00 87 1015.2
20260507225805 12 269 0.0 0.0 0.00 0.00 0.00 87 1015.4
20260507225306 13 269 0.0 0.0 0.00 0.00 0.00 87 1015.3
20260507224804 13 271 0.0 0.0 0.00 0.00 0.00 87 1015.3
20260507224304 13 268 0.0 0.0 0.00 0.00 0.00 87 1015.3
20260507223805 13 275 0.0 0.0 0.00 0.00 0.00 87 1015.2
20260507223303 13 252 0.0 0.0 0.00 0.00 0.00 87 1015.4
20260507222805 13 278 0.0 0.0 0.00 0.00 0.00 87 1015.4
20260507222306 12 274 0.0 0.0 0.00 0.00 0.00 87 1015.5
20260507222233 12 245 0.0 0.0 0.00 0.00 0.00 87 1015.6
20260507221302 12 245 0.0 0.0 0.00 0.00 0.00 87 1015.6
20260507220801 12 245 0.0 0.0 0.00 0.00 0.00 87 1015.7
20260507220303 12 245 0.0 0.0 0.00 0.00 0.00 87 1015.7
20260507215803 12 245 0.0 0.0 0.00 0.00 0.00 87 1015.7
20260507215728 12 245 0.0 0.0 0.00 0.00 0.00 87 1015.8
20260507215206 12 245 0.0 0.0 0.00 0.00 0.00 87 1015.7
20260507214956 12 245 0.0 0.0 0.00 0.00 0.00 87 1015.7
20260507213804 12 245 0.0 0.0 0.00 0.00 0.00 87 1015.7
20260507213301 12 245 0.0 0.0 0.00 0.00 0.00 87 1015.7
20260507212802 13 245 0.0 0.0 0.00 0.00 0.00 87 1015.8
20260507212301 13 245 0.0 0.0 0.00 0.00 0.00 87 1015.7
20260507211803 13 244 0.0 0.0 0.00 0.00 0.00 87 1015.8
20260507211301 13 245 0.0 0.0 0.00 0.00 0.00 87 1015.8
20260507210802 13 245 0.0 0.0 0.00 0.00 0.00 87 1015.7
20260507210301 13 245 0.0 0.0 0.00 0.00 0.00 87 1015.7
20260507205804 13 245 0.0 0.0 0.00 0.00 0.00 87 1015.7
20260507205301 13 245 0.0 0.0 0.00 0.00 0.00 87 1015.8
20260507204800 13 245 0.0 0.0 0.00 0.00 0.00 87 1015.7
20260507204302 13 245 0.0 0.0 0.00 0.00 0.00 87 1015.6
20260507203801 13 245 0.0 0.0 0.00 0.00 0.00 87 1015.7
20260507203302 13 245 0.0 0.0 0.00 0.00 0.00 87 1015.7
20260507203219 13 245 0.0 0.0 0.00 0.00 0.00 87 1015.6
20260507202306 13 274 0.0 0.0 0.00 0.00 0.00 87 1015.7
20260507201802 13 274 0.0 0.0 0.00 0.00 0.00 87 1015.6
20260507201720 13 274 0.0 0.0 0.00 0.00 0.00 87 1015.7
20260507200759 13 274 0.0 0.0 0.00 0.00 0.00 87 1015.8
20260507200259 13 278 0.0 0.0 0.00 0.00 0.00 87 1015.9
20260507195800 13 278 0.0 0.0 0.00 0.00 0.00 87 1015.8
20260507195259 13 278 0.0 0.0 0.00 0.00 0.00 87 1015.8
20260507194800 13 276 0.0 0.0 0.00 0.00 0.00 87 1015.9
20260507194300 13 278 0.0 0.0 0.00 0.00 0.00 87 1015.8
20260507193802 13 278 0.0 0.0 0.00 0.00 0.00 87 1015.9
20260507193259 13 278 0.0 0.0 0.00 0.00 0.00 86 1015.8
20260507192801 13 278 0.0 0.0 0.00 0.00 0.00 86 1015.8
20260507192258 13 278 0.0 0.0 0.00 0.00 0.00 86 1015.9
20260507191758 13 278 0.0 0.0 0.00 0.00 0.00 85 1015.8
20260507191259 13 276 0.0 0.0 0.00 0.00 0.00 85 1015.8
20260507190758 13 278 0.0 0.0 0.00 0.00 0.00 84 1015.7
20260507190259 13 278 0.0 0.0 0.00 0.00 0.00 85 1015.6
20260507190217 13 254 0.0 0.0 0.00 0.00 0.00 85 1015.7
20260507185300 13 254 0.0 0.0 0.00 0.00 0.00 85 1015.6
20260507184758 13 254 0.0 0.0 0.00 0.00 0.00 85 1015.6
20260507184259 13 134 0.0 0.0 0.00 0.00 0.00 84 1015.5
20260507183758 13 135 0.0 0.0 0.00 0.00 0.00 84 1015.5
20260507183258 13 135 0.0 0.0 0.00 0.00 0.00 83 1015.4
20260507182758 14 134 0.0 0.0 0.00 0.00 0.00 83 1015.4
20260507182257 14 134 0.0 0.0 0.00 0.00 0.00 83 1015.3
20260507181759 14 134 0.0 0.0 0.00 0.00 0.00 82 1015.2
20260507181257 15 135 0.0 0.0 0.00 0.00 0.00 81 1015.2
20260507180759 15 135 0.0 0.0 0.00 0.00 0.00 80 1015.2
20260507180732 15 135 0.0 0.0 0.00 0.00 0.00 78 1015.0
20260507175757 15 135 0.0 0.0 0.00 0.00 0.00 78 1015.0
20260507175257 16 135 0.0 0.0 0.00 0.00 0.00 76 1015.0
20260507174757 16 135 0.0 0.0 0.00 0.00 0.00 75 1015.0
20260507174614 16 135 0.0 0.0 0.00 0.00 0.00 72 1014.8
20260507174607 17 135 0.0 0.0 0.00 0.00 0.00 72 1014.9
20260507174425 16 134 0.0 0.0 0.00 0.00 0.00 74 1014.9
20260507173939 16 135 0.0 0.0 0.00 0.00 0.00 73 1014.9
20260507172259 17 135 0.0 0.0 0.00 0.00 0.00 71 1014.8
20260507171756 17 135 0.0 0.0 0.00 0.00 0.00 70 1014.8
20260507171257 18 135 0.0 0.0 0.00 0.00 0.00 68 1014.8
20260507170758 18 135 0.0 0.0 0.00 0.00 0.00 67 1014.7
20260507170720 18 135 0.0 0.0 0.00 0.00 0.00 66 1014.7
20260507165755 18 135 0.0 0.0 0.00 0.00 0.00 66 1014.7
20260507165256 19 135 0.0 0.0 0.00 0.00 0.00 64 1014.5
20260507164757 19 135 0.0 0.0 0.00 0.00 0.00 63 1014.7
20260507164255 20 135 0.0 0.0 0.00 0.00 0.00 63 1014.7
20260507163758 20 135 0.0 0.0 0.00 0.00 0.00 62 1014.5
20260507163731 20 135 0.0 0.0 0.00 0.00 0.00 61 1014.7
20260507162754 20 135 0.0 0.0 0.00 0.00 0.00 60 1014.5
20260507162255 20 92 0.0 0.0 0.00 0.00 0.00 61 1014.5
20260507162227 20 148 0.0 1.6 0.00 0.00 0.00 59 1014.5
20260507161718 21 152 0.0 1.6 0.00 0.00 0.00 59 1014.5
20260507160755 21 128 0.0 0.0 0.00 0.00 0.00 58 1014.7
20260507160257 21 130 0.0 0.0 0.00 0.00 0.00 59 1014.5
20260507155754 21 131 0.0 0.0 0.00 0.00 0.00 55 1014.5
20260507155257 21 118 0.0 0.0 0.00 0.00 0.00 55 1014.5
20260507155214 21 97 0.0 0.0 0.00 0.00 0.00 56 1014.5
20260507154950 21 168 0.0 0.0 0.00 0.00 0.00 56 1014.5
20260507153754 21 85 0.0 4.8 0.00 0.00 0.00 57 1014.5
20260507153254 21 83 0.0 9.7 0.00 0.00 0.00 54 1014.5
20260507152754 21 164 3.2 9.7 0.00 0.00 0.00 53 1014.7
20260507152253 22 86 0.0 6.4 0.00 0.00 0.00 53 1014.5
20260507151754 22 113 0.0 9.7 0.00 0.00 0.00 53 1014.5
20260507151253 22 114 3.2 9.7 0.00 0.00 0.00 53 1014.7
20260507151222 22 134 0.0 3.2 0.00 0.00 0.00 53 1014.7
20260507150255 22 113 0.0 4.8 0.00 0.00 0.00 54 1014.7
20260507145753 22 179 1.6 8.0 0.00 0.00 0.00 52 1014.7
20260507145253 22 131 0.0 8.0 0.00 0.00 0.00 53 1014.5
20260507144753 22 138 0.0 6.4 0.00 0.00 0.00 52 1014.7
20260507144254 22 149 0.0 4.8 0.00 0.00 0.00 53 1014.7
20260507143753 23 59 0.0 3.2 0.00 0.00 0.00 52 1014.7
20260507143255 23 117 0.0 6.4 0.00 0.00 0.00 52 1014.8
20260507142752 23 149 0.0 6.4 0.00 0.00 0.00 53 1014.8
20260507142254 22 151 0.0 11.3 0.00 0.00 0.00 51 1014.8
20260507141752 22 157 3.2 11.3 0.00 0.00 0.00 52 1014.9
20260507141713 22 142 0.0 16.1 0.00 0.00 0.00 52 1014.8
20260507140753 23 34 3.2 16.1 0.00 0.00 0.00 51 1014.8
20260507140251 23 185 0.0 1.6 0.00 0.00 0.00 50 1014.8
20260507135749 23 199 0.0 11.3 0.00 0.00 0.00 52 1014.8
20260507135250 23 235 4.8 11.3 0.00 0.00 0.00 51 1014.8
20260507134748 23 137 1.6 14.5 0.00 0.00 0.00 50 1014.8
20260507134249 23 128 0.0 14.5 0.00 0.00 0.00 52 1014.9
20260507133749 23 130 1.6 8.0 0.00 0.00 0.00 51 1014.9
20260507133248 23 93 0.0 8.0 0.00 0.00 0.00 51 1015.0
20260507132749 23 141 1.6 8.0 0.00 0.00 0.00 51 1014.8
20260507132245 23 78 0.0 11.3 0.00 0.00 0.00 48 1014.9
20260507131746 23 245 0.0 11.3 0.00 0.00 0.00 50 1014.9
20260507131245 23 97 0.0 11.3 0.00 0.00 0.00 50 1015.0
20260507130744 23 233 1.6 11.3 0.00 0.00 0.00 48 1015.1
20260507130242 23 151 0.0 16.1 0.00 0.00 0.00 50 1015.0
20260507125747 23 155 0.0 16.1 0.00 0.00 0.00 48 1015.1
20260507125241 23 149 0.0 8.0 0.00 0.00 0.00 48 1015.1
20260507124741 23 78 1.6 11.3 0.00 0.00 0.00 50 1015.1
20260507124240 23 114 1.6 11.3 0.00 0.00 0.00 51 1015.2
20260507123741 23 134 3.2 11.3 0.00 0.00 0.00 50 1015.1
20260507123238 23 182 3.2 11.3 0.00 0.00 0.00 50 1015.2
20260507122739 23 147 0.0 16.1 0.00 0.00 0.00 50 1015.2
20260507122237 23 176 4.8 16.1 0.00 0.00 0.00 49 1015.3
20260507121738 23 221 0.0 8.0 0.00 0.00 0.00 49 1015.4
20260507121239 23 151 0.0 14.5 0.00 0.00 0.00 50 1015.4
20260507120738 23 109 1.6 14.5 0.00 0.00 0.00 50 1015.4
20260507120723 23 180 1.6 14.5 0.00 0.00 0.00 51 1015.4
20260507115736 22 96 3.2 14.5 0.00 0.00 0.00 50 1015.4
20260507115702 22 137 0.0 16.1 0.00 0.00 0.00 53 1015.5
20260507114733 22 161 3.2 16.1 0.00 0.00 0.00 51 1015.5
20260507114233 22 114 1.6 11.3 0.00 0.00 0.00 51 1015.5
20260507113733 22 145 1.6 8.0 0.00 0.00 0.00 50 1015.6
20260507113231 23 118 3.2 14.5 0.00 0.00 0.00 49 1015.5
20260507112733 22 159 0.0 14.5 0.00 0.00 0.00 50 1015.5
20260507112232 23 59 1.6 11.3 0.00 0.00 0.00 50 1015.4
20260507111733 22 233 0.0 11.3 0.00 0.00 0.00 49 1015.4
20260507111232 22 94 0.0 9.7 0.00 0.00 0.00 48 1015.4
20260507110732 23 141 1.6 9.7 0.00 0.00 0.00 48 1015.5
20260507110232 22 144 0.0 9.7 0.00 0.00 0.00 48 1015.5
20260507105733 22 131 1.6 14.5 0.00 0.00 0.00 50 1015.5
20260507105232 22 182 3.2 14.5 0.00 0.00 0.00 49 1015.4
20260507104734 22 87 0.0 14.5 0.00 0.00 0.00 50 1015.5
20260507104232 22 172 1.6 17.7 0.00 0.00 0.00 50 1015.6
20260507103731 22 125 3.2 17.7 0.00 0.00 0.00 49 1015.6
20260507103653 22 117 0.0 16.1 0.00 0.00 0.00 52 1015.6
20260507102731 22 138 3.2 16.1 0.00 0.00 0.00 49 1015.7
20260507102650 22 127 1.6 16.1 0.00 0.00 0.00 48 1015.6
20260507102117 22 141 3.2 16.1 0.00 0.00 0.00 49 1015.7
20260507102110 21 138 1.6 16.1 0.00 0.00 0.00 51 1015.7
20260507101910 22 128 1.6 16.1 0.00 0.00 0.00 50 1015.7
20260507100229 21 140 4.8 17.7 0.00 0.00 0.00 48 1015.8
20260507095731 21 121 9.7 17.7 0.00 0.00 0.00 50 1015.8
20260507095230 21 137 6.4 17.7 0.00 0.00 0.00 47 1015.8
20260507094726 21 59 3.2 16.1 0.00 0.00 0.00 49 1015.8
20260507094223 22 49 1.6 16.1 0.00 0.00 0.00 48 1015.8
20260507094158 22 142 4.8 16.1 0.00 0.00 0.00 50 1015.8
20260507093225 21 138 6.4 16.1 0.00 0.00 0.00 48 1015.9
20260507092726 22 107 1.6 17.7 0.00 0.00 0.00 47 1015.9
20260507092227 22 109 6.4 17.7 0.00 0.00 0.00 47 1015.9
20260507092153 22 102 3.2 16.1 0.00 0.00 0.00 50 1015.9
20260507091225 22 141 0.0 9.7 0.00 0.00 0.00 49 1015.9
20260507090723 22 124 0.0 9.7 0.00 0.00 0.00 46 1015.7
20260507090220 22 265 1.6 8.0 0.00 0.00 0.00 46 1015.9
20260507085721 21 121 1.6 9.7 0.00 0.00 0.00 47 1015.8
20260507085219 22 114 1.6 9.7 0.00 0.00 0.00 44 1015.8
20260507084718 22 128 3.2 9.7 0.00 0.00 0.00 46 1015.9
20260507084220 22 172 1.6 14.5 0.00 0.00 0.00 49 1015.9
20260507083720 22 133 4.8 14.5 0.00 0.00 0.00 48 1015.9
20260507083216 22 145 4.8 11.3 0.00 0.00 0.00 44 1015.9
20260507083136 22 155 1.6 9.7 0.00 0.00 0.00 47 1015.9
20260507082217 22 140 3.2 9.7 0.00 0.00 0.00 45 1015.8
20260507081714 22 135 0.0 0.0 0.00 0.00 0.00 45 1015.9
20260507081637 21 130 0.0 1.6 0.00 0.00 0.00 48 1015.8
20260507080713 21 124 0.0 4.8 0.00 0.00 0.00 46 1015.7
20260507080214 20 155 0.0 9.7 0.00 0.00 0.00 47 1015.8
20260507075713 20 68 6.4 9.7 0.00 0.00 0.00 46 1015.6
20260507075639 20 137 3.2 8.0 0.00 0.00 0.00 48 1015.7
20260507074711 20 92 3.2 8.0 0.00 0.00 0.00 46 1015.8
20260507074214 20 157 0.0 0.0 0.00 0.00 0.00 48 1015.9
20260507073710 20 123 0.0 0.0 0.00 0.00 0.00 46 1015.9
20260507073633 20 63 0.0 0.0 0.00 0.00 0.00 43 1015.9
20260507073147 21 131 0.0 0.0 0.00 0.00 0.00 43 1015.9
20260507072212 20 182 0.0 0.0 0.00 0.00 0.00 43 1015.9
20260507071707 21 209 0.0 0.0 0.00 0.00 0.00 44 1015.9
20260507071205 21 82 0.0 0.0 0.00 0.00 0.00 43 1015.8
20260507071102 20 151 0.0 0.0 0.00 0.00 0.00 47 1015.9
20260507070856 21 228 0.0 0.0 0.00 0.00 0.00 44 1015.8
20260507065704 20 255 0.0 0.0 0.00 0.00 0.00 55 1015.9
20260507065204 19 106 0.0 0.0 0.00 0.00 0.00 58 1015.9
20260507064702 19 158 0.0 0.0 0.00 0.00 0.00 55 1015.9
20260507064623 19 144 0.0 0.0 0.00 0.00 0.00 59 1015.8
20260507063703 19 145 0.0 0.0 0.00 0.00 0.00 62 1015.9
20260507063204 19 78 0.0 0.0 0.00 0.00 0.00 66 1015.8
20260507062703 19 336 0.0 0.0 0.00 0.00 0.00 68 1015.9
20260507062203 19 279 0.0 0.0 0.00 0.00 0.00 68 1015.8
20260507061702 18 261 0.0 0.0 0.00 0.00 0.00 72 1015.8
20260507061633 18 264 0.0 0.0 0.00 0.00 0.00 72 1015.8
20260507060703 17 264 0.0 0.0 0.00 0.00 0.00 74 1015.9
20260507060202 16 264 0.0 0.0 0.00 0.00 0.00 77 1016.0
20260507055704 16 264 0.0 0.0 0.00 0.00 0.00 78 1016.0
20260507055201 15 264 0.0 0.0 0.00 0.00 0.00 77 1016.0
20260507054703 16 264 0.0 0.0 0.00 0.00 0.00 79 1015.9
20260507054202 15 261 0.0 0.0 0.00 0.00 0.00 80 1016.0
20260507054132 15 262 0.0 0.0 0.00 0.00 0.00 81 1015.9
20260507053201 14 261 0.0 0.0 0.00 0.00 0.00 83 1015.9
20260507052700 13 262 0.0 0.0 0.00 0.00 0.00 85 1015.9
20260507052201 13 274 0.0 0.0 0.00 0.00 0.00 87 1016.0
20260507051700 12 275 0.0 0.0 0.00 0.00 0.00 87 1016.0
20260507051204 11 275 0.0 0.0 0.00 0.00 0.00 88 1016.0
20260507051126 10 274 0.0 0.0 0.00 0.00 0.00 87 1016.0
20260507050200 10 268 0.0 0.0 0.00 0.00 0.00 87 1016.1
20260507045701 10 268 0.0 0.0 0.00 0.00 0.00 86 1016.1
20260507045158 9 266 0.0 0.0 0.00 0.00 0.00 86 1016.1
20260507044657 8 268 0.0 0.0 0.00 0.00 0.00 85 1016.2
20260507044616 8 266 0.0 0.0 0.00 0.00 0.00 85 1016.2